• In Deutschland
  • Länderverzeichnis
  • Für 7 Tage
  • Wassertemperatur
  • Satellitenkarten
  • Wetterkarte
  • Widgets
  • user-avatar
    Anmelden

    Stündliche Wetter Attendorn

    Heute, 16 Juli, Montag

    Zeit Temperatur Niederschläge Wind Luftdruck Luftfeuchtigkeit
    00:00 +16°C° 0 mm 1 m/S 727 mmHg 79%
    01:00 +16°C° 0 mm 1 m/S 727 mmHg 78%
    02:00 +15°C° 0,1 mm 1 m/S 727 mmHg 80%
    03:00 +15°C° 0,1 mm 1 m/S 727 mmHg 83%
    04:00 +14°C° 0,1 mm 1 m/S 727 mmHg 85%
    05:00 +16°C° 0 mm 1 m/S 727 mmHg 81%
    06:00 +18°C° 0 mm 1 m/S 727 mmHg 78%
    07:00 +19°C° 0 mm 1 m/S 727 mmHg 71%
    08:00 +21°C° 0 mm 1 m/S 727 mmHg 64%
    09:00 +24°C° 0 mm 1 m/S 727 mmHg 57%
    10:00 +26°C° 0 mm 1 m/S 727 mmHg 51%
    11:00 +26°C° 0,4 mm 1 m/S 727 mmHg 54%
    12:00 +27°C° 0,4 mm 1 m/S 727 mmHg 50%
    13:00 +29°C° 0 mm 1 m/S 727 mmHg 38%
    14:00 +29°C° 0 mm 1 m/S 726 mmHg 39%
    15:00 +28°C° 0 mm 1 m/S 726 mmHg 40%
    16:00 +28°C° 0 mm 1 m/S 726 mmHg 41%
    17:00 +27°C° 0 mm 1 m/S 726 mmHg 46%
    18:00 +26°C° 0 mm 1 m/S 726 mmHg 51%
    19:00 +25°C° 0 mm 1 m/S 725 mmHg 55%
    20:00 +23°C° 0 mm 1 m/S 726 mmHg 59%
    21:00 +22°C° 0 mm 1 m/S 726 mmHg 63%
    22:00 +20°C° 0 mm 1 m/S 726 mmHg 66%
    23:00 +19°C° 0 mm 1 m/S 726 mmHg 69%

    Morgen, 17 Juli, Dienstag

    Zeit Temperatur Niederschläge Wind Luftdruck Luftfeuchtigkeit
    00:00 +19°C° 0 mm 1 m/S 726 mmHg 72%
    01:00 +18°C° 0 mm 1 m/S 726 mmHg 75%
    02:00 +18°C° 0 mm 1 m/S 726 mmHg 77%
    03:00 +15°C° 0 mm 0 m/S 726 mmHg 78%
    04:00 +15°C° 0 mm 0 m/S 726 mmHg 79%
    05:00 +16°C° 0 mm 0 m/S 726 mmHg 76%
    06:00 +17°C° 0 mm 0 m/S 726 mmHg 73%
    07:00 +18°C° 0 mm 0 m/S 727 mmHg 70%
    08:00 +22°C° 0,1 mm 1 m/S 727 mmHg 63%
    09:00 +24°C° 0,1 mm 1 m/S 727 mmHg 56%
    10:00 +26°C° 0,1 mm 1 m/S 727 mmHg 49%
    11:00 +27°C° 0 mm 2 m/S 727 mmHg 45%
    12:00 +28°C° 0 mm 2 m/S 727 mmHg 41%
    13:00 +29°C° 0 mm 2 m/S 727 mmHg 37%
    14:00 +28°C° 0 mm 2 m/S 727 mmHg 38%
    15:00 +28°C° 0 mm 2 m/S 727 mmHg 40%
    16:00 +28°C° 0 mm 2 m/S 727 mmHg 42%
    17:00 +27°C° 0 mm 2 m/S 727 mmHg 48%
    18:00 +26°C° 0 mm 2 m/S 727 mmHg 54%
    19:00 +25°C° 0 mm 2 m/S 727 mmHg 59%
    20:00 +23°C° 0,3 mm 2 m/S 727 mmHg 66%
    21:00 +20°C° 0,3 mm 2 m/S 727 mmHg 72%
    22:00 +18°C° 0,3 mm 2 m/S 728 mmHg 79%
    23:00 +18°C° 0 mm 2 m/S 728 mmHg 81%

    übermorgen, 18 Juli, Mittwoch

    Zeit Temperatur Niederschläge Wind Luftdruck Luftfeuchtigkeit
    00:00 +18°C° 0 mm 1 m/S 728 mmHg 84%
    01:00 +16°C° 0 mm 1 m/S 728 mmHg 87%
    02:00 +16°C° 0 mm 1 m/S 728 mmHg 88%
    03:00 +15°C° 0 mm 1 m/S 728 mmHg 89%
    04:00 +15°C° 0 mm 1 m/S 728 mmHg 90%
    05:00 +15°C° 0 mm 1 m/S 729 mmHg 87%
    06:00 +16°C° 0 mm 1 m/S 729 mmHg 84%
    07:00 +18°C° 0 mm 1 m/S 729 mmHg 82%
    08:00 +20°C° 0 mm 1 m/S 729 mmHg 72%
    09:00 +21°C° 0 mm 1 m/S 729 mmHg 63%
    10:00 +23°C° 0 mm 2 m/S 730 mmHg 53%
    11:00 +24°C° 0 mm 2 m/S 730 mmHg 50%
    12:00 +25°C° 0 mm 2 m/S 729 mmHg 47%
    13:00 +25°C° 0 mm 2 m/S 729 mmHg 45%
    14:00 +26°C° 0 mm 2 m/S 729 mmHg 43%
    15:00 +26°C° 0 mm 2 m/S 729 mmHg 42%
    16:00 +26°C° 0 mm 2 m/S 729 mmHg 41%
    17:00 +25°C° 0 mm 2 m/S 729 mmHg 46%
    18:00 +24°C° 0 mm 1 m/S 729 mmHg 51%
    19:00 +23°C° 0 mm 1 m/S 729 mmHg 56%
    20:00 +22°C° 0 mm 1 m/S 729 mmHg 60%
    21:00 +20°C° 0 mm 1 m/S 729 mmHg 65%
    22:00 +18°C° 0 mm 1 m/S 729 mmHg 69%
    23:00 +16°C° 0 mm 1 m/S 729 mmHg 71%

    19 Juli, Donnerstag

    Zeit Temperatur Niederschläge Wind Luftdruck Luftfeuchtigkeit
    00:00 +16°C° 0 mm 1 m/S 729 mmHg 73%
    01:00 +15°C° 0 mm 1 m/S 729 mmHg 75%
    02:00 +15°C° 0 mm 1 m/S 729 mmHg 77%
    03:00 +14°C° 0 mm 1 m/S 729 mmHg 78%
    04:00 +14°C° 0 mm 1 m/S 729 mmHg 80%
    05:00 +15°C° 0 mm 1 m/S 729 mmHg 76%
    06:00 +18°C° 0 mm 1 m/S 729 mmHg 72%
    07:00 +19°C° 0 mm 1 m/S 730 mmHg 67%
    08:00 +21°C° 0 mm 1 m/S 730 mmHg 61%
    09:00 +23°C° 0 mm 1 m/S 730 mmHg 54%
    10:00 +25°C° 0 mm 1 m/S 730 mmHg 47%
    11:00 +25°C° 0 mm 1 m/S 730 mmHg 46%
    12:00 +26°C° 0 mm 1 m/S 730 mmHg 45%
    13:00 +26°C° 0 mm 1 m/S 729 mmHg 44%
    14:00 +26°C° 0 mm 1 m/S 729 mmHg 43%
    15:00 +26°C° 0 mm 1 m/S 729 mmHg 42%
    16:00 +27°C° 0 mm 1 m/S 729 mmHg 41%
    17:00 +26°C° 0 mm 1 m/S 729 mmHg 47%
    18:00 +25°C° 0 mm 1 m/S 729 mmHg 52%
    19:00 +24°C° 0 mm 1 m/S 728 mmHg 58%
    20:00 +21°C° 0 mm 2 m/S 728 mmHg 61%
    21:00 +20°C° 0 mm 2 m/S 728 mmHg 65%
    22:00 +18°C° 0 mm 2 m/S 728 mmHg 68%
    23:00 +18°C° 0 mm 2 m/S 728 mmHg 69%

    20 Juli, Freitag

    Zeit Temperatur Niederschläge Wind Luftdruck Luftfeuchtigkeit
    00:00 +17°C° 0 mm 2 m/S 728 mmHg 69%
    01:00 +17°C° 0 mm 2 m/S 728 mmHg 69%
    02:00 +17°C° 0 mm 2 m/S 728 mmHg 69%
    03:00 +16°C° 0 mm 2 m/S 728 mmHg 69%
    04:00 +16°C° 0 mm 2 m/S 727 mmHg 69%
    05:00 +18°C° 0 mm 1 m/S 727 mmHg 67%
    06:00 +19°C° 0 mm 1 m/S 727 mmHg 66%
    07:00 +20°C° 0 mm 1 m/S 727 mmHg 65%
    08:00 +22°C° 0 mm 1 m/S 727 mmHg 59%
    09:00 +23°C° 0 mm 1 m/S 728 mmHg 53%
    10:00 +25°C° 0 mm 2 m/S 728 mmHg 47%
    11:00 +25°C° 0 mm 1 m/S 727 mmHg 48%
    12:00 +26°C° 0 mm 1 m/S 727 mmHg 49%
    13:00 +26°C° 0 mm 1 m/S 727 mmHg 50%
    14:00 +25°C° 0,1 mm 1 m/S 726 mmHg 55%
    15:00 +24°C° 0,1 mm 1 m/S 726 mmHg 60%
    16:00 +24°C° 0,1 mm 1 m/S 726 mmHg 64%
    17:00 +23°C° 0,2 mm 1 m/S 725 mmHg 69%
    18:00 +22°C° 0,2 mm 1 m/S 725 mmHg 73%
    19:00 +21°C° 0,2 mm 1 m/S 725 mmHg 78%
    20:00 +20°C° 0,5 mm 1 m/S 725 mmHg 80%
    21:00 +19°C° 0,5 mm 1 m/S 725 mmHg 82%
    22:00 +19°C° 0,5 mm 1 m/S 725 mmHg 84%
    23:00 +19°C° 0,4 mm 1 m/S 725 mmHg 85%

    21 Juli, Samstag

    Zeit Temperatur Niederschläge Wind Luftdruck Luftfeuchtigkeit
    00:00 +18°C° 0,4 mm 1 m/S 725 mmHg 86%
    01:00 +18°C° 0,4 mm 1 m/S 725 mmHg 88%
    02:00 +18°C° 0,2 mm 1 m/S 724 mmHg 89%
    03:00 +16°C° 0,2 mm 1 m/S 724 mmHg 90%
    04:00 +16°C° 0,2 mm 1 m/S 724 mmHg 91%
    05:00 +16°C° 0,1 mm 1 m/S 724 mmHg 89%
    06:00 +18°C° 0,1 mm 1 m/S 724 mmHg 88%
    07:00 +19°C° 0,1 mm 1 m/S 724 mmHg 87%
    08:00 +18°C° 0,3 mm 2 m/S 725 mmHg 84%
    09:00 +19°C° 0,3 mm 2 m/S 725 mmHg 81%
    10:00 +20°C° 0,3 mm 3 m/S 725 mmHg 77%
    11:00 +20°C° 0,4 mm 3 m/S 725 mmHg 74%
    12:00 +21°C° 0,4 mm 4 m/S 725 mmHg 70%
    13:00 +22°C° 0,4 mm 4 m/S 725 mmHg 67%
    14:00 +21°C° 0,6 mm 4 m/S 725 mmHg 68%
    15:00 +21°C° 0,6 mm 4 m/S 725 mmHg 69%
    16:00 +21°C° 0,6 mm 5 m/S 725 mmHg 70%
    17:00 +20°C° 0,1 mm 4 m/S 725 mmHg 70%
    18:00 +19°C° 0,1 mm 4 m/S 726 mmHg 70%
    19:00 +18°C° 0,1 mm 3 m/S 726 mmHg 70%
    20:00 +17°C° 0 mm 3 m/S 726 mmHg 74%
    21:00 +16°C° 0 mm 3 m/S 726 mmHg 78%
    22:00 +15°C° 0 mm 2 m/S 727 mmHg 82%
    23:00 +14°C° 0 mm 2 m/S 727 mmHg 84%
    Mehr zeigen